Location: Unspecified
(0.0000°N, 0.0000°E)
Time: 03:47:46
(UTC+00:00)

Hubble Space Telescope - Pass Details

Date: 14 July 2024
Orbit: 509 x 513 km, 28.5° (Epoch: 24 July)

Event Time Altitude Azimuth Distance (km) Brightness Sun altitude
Exits shadow 04:18:43 13° 147° (SSE) 1,529 3.2 -24.8°
Drops below altitude 10° 04:19:16 10° 143° (SE) 1,722 3.5 -24.7°
Sets 04:21:38 0° 134° (SE) 2,608 4.6 -24.1°
